Weather History for MZBZ - January, 2013

Change the Weather History Date:

Monday, January 7, 2013

  Actual Average (WUND) Record (WUND)
Temperature  
Mean Temperature 77 °F -  
Max Temperature 83 °F - - (-1)
Min Temperature 71 °F - - (-1)
Cooling Degree Days 12    
Growing Degree Days 27 (Base 50)    
Moisture  
Dew Point 74 °F    
Average Humidity 89    
Maximum Humidity 100    
Minimum Humidity 71    
Precipitation  
Precipitation 0.00 in 0.16 in - ()
Sea Level Pressure  
Sea Level Pressure 30.00 in    
Wind  
Wind Speed 4 mph ()    
Max Wind Speed 13 mph    
Max Gust Speed -    
Visibility 6.9 miles    
Events Fog , Rain    
Averages and records for this station are not official NWS values.
T = Trace of Precipitation, MM = Missing Value Source: Averaged Metar Reports

Daily Weather History Graph

Daily Weather History Graph

Search for Another Location

Airport or City:

Trip Planner

Search our weather history database for the weather conditions in past years. The results will help you decide how hot, cold, wet, or windy it might be!

Date:

Astronomy

Jan. 07, 2013 Rise Set
Actual Time 6:25 AM CST 5:33 PM CST
Civil Twilight 6:02 AM CST 5:57 PM CST
Nautical Twilight 5:35 AM CST 6:24 PM CST
Astronomical Twilight 5:08 AM CST 6:50 PM CST
Moon 1:58 AM CST (1/7) 1:37 PM CST (1/7)
Length of Visible Light 11h 55m
Length of Day
11h 08m
Waning Crescent, 22% of the Moon is Illuminated
Jan 7
Waning Crescent
Jan 11
New
Jan 18
First Quarter
Jan 26
Full
Feb 3
Last Quarter

Hourly Weather History & Observations

Time (CST) Temp. Heat Index Dew Point Humidity Pressure Visibility Wind Dir Wind Speed Gust Speed Precip Events Conditions
12:00 AM 73 °F - 72 °F 98% 30.03 in 11 mi Calm Calm - - Rain Light Rain Showers
3:00 AM 72 °F - 72 °F 98% 29.99 in 12 mi Calm Calm - -   Partly Cloudy
5:00 AM 71.6 °F - 71.6 °F 100% 29.98 in 0.9 mi WNW 4.6 mph - N/A   Mist
6:00 AM 72 °F - 72 °F 99% 30.00 in 12 mi Calm Calm - -   Partly Cloudy
6:00 AM 73.4 °F - 71.6 °F 94% 29.98 in 6.2 mi Calm Calm - N/A   Mostly Cloudy
7:00 AM 71.6 °F - 71.6 °F 100% 30.04 in 2.5 mi WNW 4.6 mph - N/A   Mostly Cloudy
7:35 AM 71.6 °F - 71.6 °F 100% 30.04 in 0.6 mi WSW 3.5 mph - N/A Fog Fog
8:00 AM 73.4 °F - 73.4 °F 100% 30.04 in 1.2 mi NW 4.6 mph - N/A   Mostly Cloudy
8:10 AM 73.4 °F - 73.4 °F 100% 30.04 in 4.3 mi NNW 4.6 mph - N/A   Mostly Cloudy
9:00 AM 76 °F - 75 °F 97% 30.07 in 11 mi North 4.6 mph - -  
9:00 AM 77.0 °F - 75.2 °F 94% 30.06 in 6.2 mi North 4.6 mph - N/A   Mostly Cloudy
10:00 AM 78.8 °F - 77.0 °F 94% 30.04 in 6.2 mi NE 6.9 mph - N/A   Scattered Clouds
11:00 AM 82.4 °F 89.5 °F 75.2 °F 79% 30.02 in 6.2 mi ENE 11.5 mph - N/A   Mostly Cloudy
12:00 PM 83 °F - 75 °F 71% 30.01 in 12 mi ENE 12.7 mph - -   Partly Cloudy
12:00 PM 82.4 °F 89.5 °F 75.2 °F 79% 30.01 in 6.2 mi ENE 12.7 mph - N/A   Mostly Cloudy
1:00 PM 82.4 °F 89.5 °F 75.2 °F 79% 29.97 in 6.2 mi ENE 12.7 mph - N/A   Mostly Cloudy
2:00 PM 80.6 °F 86.2 °F 75.2 °F 84% 29.95 in 6.2 mi ENE 10.4 mph - N/A   Mostly Cloudy
3:00 PM 80 °F - 74 °F 77% 29.94 in 11 mi ESE 5.8 mph - - Rain Light Rain Showers
3:00 PM 80.6 °F 85.4 °F 73.4 °F 79% 29.93 in 6.2 mi ESE 5.8 mph - N/A   Mostly Cloudy
4:00 PM 80.6 °F 85.4 °F 73.4 °F 79% 29.94 in 6.2 mi ENE 6.9 mph - N/A   Mostly Cloudy
5:00 PM 80.6 °F 86.2 °F 75.2 °F 84% 29.94 in 6.2 mi ENE 9.2 mph - N/A   Mostly Cloudy
6:00 PM 80 °F - 74 °F 78% 29.96 in 12 mi East 8.1 mph - -   Partly Cloudy
6:00 PM 80.6 °F 86.2 °F 75.2 °F 84% 29.95 in 6.2 mi East 8.1 mph - N/A   Mostly Cloudy